TimeEST,TemperatureF,Dew PointF,Humidity,Sea Level PressureIn,VisibilityMPH,Wind Direction,Wind SpeedMPH,Gust SpeedMPH,PrecipitationIn,Events,Conditions,WindDirDegrees,DateUTC
12:15 AM,29.5,14.7,54,30.23,10.0,East,8.1,-,N/A,,Clear,80,2014-02-12 05:15:00
12:35 AM,29.7,14.9,54,30.23,10.0,East,6.9,-,N/A,,Clear,80,2014-02-12 05:35:00
12:55 AM,29.8,14.9,54,30.22,10.0,East,9.2,-,N/A,,Clear,80,2014-02-12 05:55:00
1:15 AM,29.8,15.3,55,30.22,10.0,East,11.5,-,N/A,,Clear,90,2014-02-12 06:15:00
1:35 AM,30.0,16.0,56,30.22,10.0,East,10.4,-,N/A,,Clear,90,2014-02-12 06:35:00
1:55 AM,29.8,16.7,58,30.22,10.0,East,10.4,-,N/A,,Clear,80,2014-02-12 06:55:00
2:15 AM,29.7,16.7,59,30.21,10.0,East,11.5,-,N/A,,Clear,80,2014-02-12 07:15:00
2:35 AM,29.7,16.9,59,30.21,10.0,East,10.4,-,N/A,,Clear,80,2014-02-12 07:35:00
2:55 AM,29.8,16.7,58,30.20,10.0,East,11.5,-,N/A,,Clear,80,2014-02-12 07:55:00
3:15 AM,29.8,16.5,58,30.21,10.0,East,11.5,-,N/A,,Clear,90,2014-02-12 08:15:00
3:35 AM,29.8,16.3,57,30.21,10.0,East,8.1,-,N/A,,Clear,80,2014-02-12 08:35:00
3:55 AM,29.3,16.7,59,30.19,10.0,East,15.0,-,N/A,,Clear,90,2014-02-12 08:55:00
4:15 AM,29.1,17.1,61,30.19,10.0,East,12.7,-,N/A,,Clear,90,2014-02-12 09:15:00
4:35 AM,28.9,17.4,62,30.19,10.0,East,15.0,-,N/A,,Clear,90,2014-02-12 09:35:00
4:55 AM,28.8,18.1,65,30.19,10.0,East,11.5,-,N/A,,Clear,90,2014-02-12 09:55:00
5:15 AM,28.4,19.0,68,30.18,10.0,East,16.1,21.9,N/A,,Clear,90,2014-02-12 10:15:00
5:35 AM,28.2,19.4,70,30.18,10.0,East,17.3,20.7,N/A,,Clear,90,2014-02-12 10:35:00
5:55 AM,28.2,19.4,70,30.17,10.0,East,17.3,21.9,N/A,,Clear,90,2014-02-12 10:55:00
6:15 AM,27.9,19.4,71,30.18,10.0,East,13.8,-,N/A,,Clear,90,2014-02-12 11:15:00
6:35 AM,27.5,19.0,71,30.18,10.0,East,17.3,-,N/A,,Clear,90,2014-02-12 11:35:00
6:55 AM,27.5,18.7,69,30.18,10.0,East,13.8,20.7,N/A,,Scattered Clouds,90,2014-02-12 11:55:00
7:15 AM,27.3,18.0,68,30.18,10.0,East,18.4,-,N/A,,Scattered Clouds,90,2014-02-12 12:15:00
7:35 AM,27.3,17.6,67,30.18,10.0,East,13.8,21.9,N/A,,Scattered Clouds,100,2014-02-12 12:35:00
7:55 AM,27.5,17.4,66,30.18,10.0,East,18.4,-,N/A,,Scattered Clouds,90,2014-02-12 12:55:00
8:15 AM,27.5,16.9,64,30.18,10.0,East,16.1,20.7,N/A,,Mostly Cloudy,100,2014-02-12 13:15:00
8:35 AM,27.9,16.9,63,30.19,10.0,East,17.3,-,N/A,,Overcast,90,2014-02-12 13:35:00
8:55 AM,28.2,16.9,63,30.20,10.0,East,13.8,20.7,N/A,,Overcast,90,2014-02-12 13:55:00
9:15 AM,28.6,16.7,61,30.19,10.0,East,17.3,-,N/A,,Overcast,100,2014-02-12 14:15:00
9:35 AM,28.9,16.5,60,30.20,10.0,East,16.1,19.6,N/A,,Overcast,90,2014-02-12 14:35:00
9:55 AM,29.3,16.7,59,30.19,10.0,East,15.0,-,N/A,,Overcast,90,2014-02-12 14:55:00
10:15 AM,30.0,16.9,58,30.18,10.0,East,15.0,-,N/A,,Overcast,100,2014-02-12 15:15:00
10:35 AM,30.2,16.5,57,30.18,10.0,East,16.1,-,N/A,,Overcast,90,2014-02-12 15:35:00
10:55 AM,30.2,16.5,57,30.17,10.0,East,16.1,-,N/A,,Overcast,100,2014-02-12 15:55:00
11:15 AM,30.9,16.7,56,30.16,10.0,East,18.4,-,N/A,,Overcast,90,2014-02-12 16:15:00
11:21 AM,30.2,15.8,55,30.16,10.0,East,16.1,20.7,N/A,,Overcast,80,2014-02-12 16:21:00
11:35 AM,31.1,16.3,54,30.15,10.0,East,15.0,20.7,N/A,,Overcast,100,2014-02-12 16:35:00
11:55 AM,31.8,16.2,52,30.15,10.0,East,18.4,-,N/A,,Overcast,100,2014-02-12 16:55:00
12:15 PM,32.0,16.3,52,30.13,10.0,East,18.4,21.9,N/A,,Overcast,100,2014-02-12 17:15:00
12:35 PM,32.0,16.0,52,30.13,10.0,East,13.8,21.9,N/A,,Overcast,90,2014-02-12 17:35:00
12:55 PM,32.0,15.8,51,30.11,10.0,East,15.0,-,N/A,,Overcast,90,2014-02-12 17:55:00
1:15 PM,32.0,15.8,51,30.10,10.0,East,16.1,21.9,N/A,,Overcast,100,2014-02-12 18:15:00
1:35 PM,30.9,20.7,66,30.10,1.8,ESE,17.3,23.0,N/A,Snow,Light Snow,110,2014-02-12 18:35:00
1:55 PM,28.4,26.1,91,30.09,0.8,ESE,12.7,19.6,N/A,Snow,Light Snow,120,2014-02-12 18:55:00
2:15 PM,28.0,26.6,94,30.09,0.5,ESE,11.5,-,N/A,Snow,Snow,110,2014-02-12 19:15:00
2:35 PM,28.0,27.0,96,30.08,1.0,ESE,15.0,-,0.01,Snow,Light Snow,110,2014-02-12 19:35:00
2:55 PM,27.5,26.4,96,30.07,1.5,East,13.8,-,0.01,Snow,Light Snow,90,2014-02-12 19:55:00
3:15 PM,27.1,25.7,94,30.05,1.0,East,12.7,-,N/A,Snow,Light Snow,100,2014-02-12 20:15:00
3:35 PM,26.2,25.0,95,30.05,0.8,East,17.3,-,N/A,Snow,Light Snow,100,2014-02-12 20:35:00
3:55 PM,26.1,24.8,95,30.04,3.0,East,16.1,23.0,N/A,Snow,Light Snow,90,2014-02-12 20:55:00
4:15 PM,25.7,24.1,94,30.03,2.5,East,17.3,-,N/A,Snow,Light Snow,90,2014-02-12 21:15:00
4:35 PM,25.7,23.7,92,30.02,5.0,East,17.3,-,N/A,Snow,Light Snow,80,2014-02-12 21:35:00
4:55 PM,25.7,23.0,89,30.00,5.0,East,17.3,-,N/A,Snow,Light Snow,90,2014-02-12 21:55:00
5:15 PM,25.9,23.0,89,29.99,7.0,East,15.0,21.9,N/A,,Overcast,90,2014-02-12 22:15:00
5:35 PM,26.1,23.0,88,29.99,5.0,ENE,8.1,19.6,N/A,Snow,Light Snow,70,2014-02-12 22:35:00
5:55 PM,25.5,23.4,92,29.97,1.2,East,10.4,18.4,N/A,Snow,Light Snow,80,2014-02-12 22:55:00
6:15 PM,24.8,23.5,95,29.98,3.0,East,9.2,16.1,0.01,Snow,Light Snow,80,2014-02-12 23:15:00
6:35 PM,24.8,23.0,93,29.98,4.0,ENE,9.2,-,0.01,Snow,Light Snow,70,2014-02-12 23:35:00
6:55 PM,24.8,23.0,93,29.96,4.0,East,12.7,-,0.01,Snow,Light Snow,90,2014-02-12 23:55:00
7:15 PM,24.8,23.0,93,29.96,2.5,East,11.5,16.1,N/A,Snow,Light Snow,90,2014-02-13 00:15:00
7:35 PM,24.6,23.4,95,29.95,1.2,East,11.5,16.1,N/A,Snow,Snow,80,2014-02-13 00:35:00
7:55 PM,24.4,23.7,97,29.95,1.0,East,11.5,-,0.01,Snow,Light Snow,90,2014-02-13 00:55:00
8:15 PM,24.3,23.5,97,29.94,1.0,East,10.4,-,N/A,Snow,Light Snow,80,2014-02-13 01:15:00
8:35 PM,24.3,23.5,97,29.93,1.2,East,10.4,-,0.01,Snow,Light Snow,80,2014-02-13 01:35:00
8:55 PM,24.3,23.5,97,29.93,1.8,East,11.5,-,0.01,Snow,Light Snow,80,2014-02-13 01:55:00
9:15 PM,23.9,23.5,99,29.92,1.2,East,13.8,-,0.01,Snow,Light Snow,90,2014-02-13 02:15:00
9:35 PM,23.9,23.5,99,29.91,1.2,East,9.2,-,0.02,Snow,Light Snow,90,2014-02-13 02:35:00
9:55 PM,23.9,23.4,98,29.90,1.0,East,10.4,16.1,0.02,Snow,Light Snow,80,2014-02-13 02:55:00
10:15 PM,23.9,23.0,96,29.90,1.8,East,10.4,-,0.01,Snow,Light Snow,90,2014-02-13 03:15:00
10:35 PM,23.9,23.0,96,29.89,1.5,East,11.5,-,0.01,Snow,Light Snow,80,2014-02-13 03:35:00
10:55 PM,23.9,23.2,97,29.88,1.2,East,10.4,-,0.02,Snow,Light Snow,80,2014-02-13 03:55:00
11:15 PM,23.9,23.4,98,29.85,1.5,East,11.5,-,0.01,Snow,Light Snow,80,2014-02-13 04:15:00
11:35 PM,24.4,23.7,97,29.85,1.5,East,12.7,18.4,0.01,Snow,Light Snow,90,2014-02-13 04:35:00
11:55 PM,24.4,23.9,98,29.83,1.5,East,12.7,-,0.02,Snow,Light Snow,90,2014-02-13 04:55:00